Regional Weather Roundup
Issued by NWS Wakefield, VA

Home | Current Version | Previous Version | Graphics & Text | Print | Product List | Glossary On
Versions: 1 2 3 4 5 6 7 8 9 10 11 12 13 14 15 16 17 18 19 20 21 22 23 24 25 26 27 28 29 30 31 32 33 34 35 36 37 38 39 40 41 42 43 44 45 46 47 48 49 50
000
ASUS41 KAKQ 270110
RWRAKQ

REGIONAL WEATHER ROUNDUP
NATIONAL WEATHER SERVICE WAKEFIELD VA
800 PM EST MON JAN 26 2015

Note: "fair" indicates few or no clouds below 12,000 feet with no
significant weather and/or obstructions to visibility. * = Denotes
station may not report precipitation (e.g., rain,snow,etc.),
thunder or fog.

VAZ042-051-052>054-056-270200-
NORTHERN VIRGINIA

CITY           SKY/WX    TMP DP  RH WIND       PRES   REMARKS
WASH NATIONAL  FLURRIES  33  27  78 N13       29.75R WCI  24
DULLES         LGT SNOW  26  22  84 N15G21    29.76R FOG     WCI  14
FORT BELVOIR   CLOUDY    31  27  84 N7        29.75R
QUANTICO       LGT RAIN  32  28  85 N10       29.76R WCI  24
FREDERICKSBRG* CLOUDY    32  32 100 NW13G18   29.74R WCI  23
STAFFORD*      CLOUDY    30  30 100 CALM      29.79R
WARRENTON      FLURRIES  31  31 100 N8        29.75R
CULPEPER*      LGT SNOW  32  30  93 N9        29.76R
MANASSAS*      CLOUDY    28  28 100 N10       29.77R WCI  19
LEESBURG*      LGT SNOW  28  28 100 N7        29.78R
WINCHESTER     LGT SNOW  28  25  86 N3        29.78R
FRONT ROYAL*   CLOUDY    28  27  93 NE5       29.77S
LURAY*         LGT SNOW  30  30 100 NE12      29.75R WCI  21
$$

VAZ048-049-060>072-079>083-270200-
CENTRAL AND SOUTH CENTRAL VIRGINIA

CITY           SKY/WX    TMP DP  RH WIND       PRES   REMARKS
RICHMOND       CLOUDY    35  33  92 N15       29.69R
CHESTERFIELD*  CLOUDY    36  23  60 N10       29.70R
PETERSBURG*    CLOUDY    37  36  95 N12G17    29.69R
HANOVER        CLOUDY    33  31  92 VRB6      29.72R
TAPPAHANNOCK*  CLOUDY    34  32  90 N7        29.69S
QUINTON*       CLOUDY    34  32  92 N9G17     29.68R
CHARLOTTSVILLE FLURRIES  33  29  85 N6        29.72R
GORDONSVILLE*  CLOUDY    32  28  86 N7        29.72S
ORANGE*        FLURRIES  32  32 100 N9        29.74S
LOUISA*        CLOUDY    34  30  86 N10       29.71R
BUMPASS*       CLOUDY    32  31  95 NW6       29.72R
FARMVILLE*     CLOUDY    37  37 100 N6        29.70R
CREWE*         CLOUDY    36  34  94 N3        29.69R
FORT PICKETT*  CLOUDY    36  35  98 N6        29.68R
CHASE CITY*    CLOUDY    40  40 100 NW6       29.69R
CLARKSVILLE*   CLOUDY    39  37  93 N6        29.68R
SOUTH HILL*    CLOUDY    38  37  93 NW6       29.73R
LAWRENCEVILLE* CLOUDY    38  37  96 N7        29.66R
EMPORIA*       CLOUDY    37  36  93 NW8       29.67R
$$

VAZ088>098-270200-
SOUTHEAST VIRGINIA

CITY           SKY/WX    TMP DP  RH WIND       PRES   REMARKS
NORFOLK        CLOUDY    40  36  86 N12       29.60S
VIRGINIA BEACH CLOUDY    42  37  82 N22G31    29.59R
NORFOLK NAVAL  CLOUDY    43  36  76 NW17      29.63R
WEST POINT*    CLOUDY    38  33  81 NW6       29.68S
SALUDA*        CLOUDY    36  33  90 N13G20    29.64F
NEWPORT NEWS   CLOUDY    42  35  76 N14       29.63S
LANGLEY AFB    CLOUDY    39  36  88 N16G22    29.61S
FORT EUSTIS    CLOUDY    38  38  99 N10G21    29.62S
WILLIAMSBURG*    N/A     39  36  87 N12G18    29.65S
HR EXEC AP*    CLOUDY    39  36  87 N6        29.64S
FRANKLIN*      CLOUDY    39  36  89 N12G18    29.64R
WAKEFIELD      CLOUDY    38  34  85 N10       29.65R
$$

VAZ020-022-025-037-045-270200-
WEST CENTRAL AND SOUTHWEST VIRGINIA

CITY           SKY/WX    TMP DP  RH WIND       PRES   REMARKS
STAUNTON*      CLOUDY    32  30  93 N8        29.73R FOG
WAYNESBORO*    CLOUDY    31  31 100 N5        29.70R VSB 1/2
HOT SPRINGS VA HVY SNOW  24  24 100 W17       29.59R VSB 1/4 WCI  10
LYNCHBURG      LGT RAIN  37  36  96 N3        29.71R
DANVILLE       LGT RAIN  41  36  82 N7        29.70R
SOUTH BOSTON*  CLOUDY    39  37  91 N5        29.70R
MARTINSVILLE   CLOUDY    40  28  62 NW16      29.73R
ROANOKE        CLOUDY    36  25  64 NW14G22   29.74R
BLACKSBURG     CLOUDY    28  23  79 W10G16    29.76R WCI  19
DUBLIN*        CLOUDY    31  25  79 NW8       29.76R
MARION*        CLOUDY    28  24  82 W10G16    29.80R WCI  19
HILLSVILLE*    CLOUDY    28  23  83 NW14G21   29.73R WCI  17
RICHLANDS*     LGT SNOW  24  21  91 NW9G16    29.80R
WISE*          CLOUDY    27  27 100 NW8       29.84R FOG
ABINGDON*      CLOUDY    30  25  82 NW9       29.84R
$$

MDZ021>025-VAZ099-100-270200-
SOUTHERN MARYLAND AND THE DELMARVA PENINSULA

CITY           SKY/WX    TMP DP  RH WIND       PRES   REMARKS
PATUXENT RIVER FRZ RAIN  32  28  85 N15       29.68S WCI  22
BAY BRIDGE APT   N/A     32  27  80 N13G20    29.72S WCI  22
LEONARDTOWN    CLOUDY    32  28  86 N6        29.70S
DOVER          CLOUDY    30  29  99 N18       29.68S WCI  17
GEORGETOWN     CLOUDY    32  29  88 N15G24    29.64S WCI  22
EASTON         LGTSLEET  32  30  93 N13G18    29.72S WCI  22
CAMBRIDGE      CLOUDY    34  32  93 CALM      29.66F
SALISBURY      LGT RAIN  36  32  85 N18G24    29.62R FOG
OCEAN CITY     CLOUDY    38  36  92 N18G31    29.58S
WALLOPS ISLAND LGT RAIN  37  36  96 N15G26    29.58R
ACCOMACK*      DRIZZLE   37  34  87 N12G20    29.59S
$$

NCZ012>017-030>032-270200-
NORTH CENTRAL AND EASTERN NORTH CAROLINA

CITY           SKY/WX    TMP DP  RH WIND       PRES   REMARKS
ROANOKE RAPIDS CLOUDY    43  39  87 NW9       29.65R
RALEIGH        LGT RAIN  44  38  79 VRB3      29.67R
ELIZABETH CITY CLOUDY    45  40  82 NW15      29.58R
AHOSKIE*       CLOUDY    44  38  82 N6        29.62S
EDENTON*       PTCLDY    46  40  80 N7        29.59R
CURRITUCK*     CLOUDY    42  39  89 N13G24    29.59R
KILL DEVIL HLS CLOUDY    43  42  95 N13G23    29.54R
MANTEO         CLOUDY    43  41  93 N18G24    29.56R
CAPE HATTERAS  CLOUDY    48  45  89 NW10G21   29.55R
TARBORO*       CLOUDY    46  43  90 NW6       29.64S
GOLDSBORO      CLOUDY    48  47  98 NW6       29.63R
WASHINGTON     CLOUDY    45  43  93 W5        29.61S
GREENVILLE     MOCLDY    45  45 100 NW5       29.66R
NEW BERN       LGT RAIN  49  44  83 NW6       29.62R
WILMINGTON     CLOUDY    49  43  80 NW10      29.65R
$$

VAZ048-270200-
ELSEWHERE

CITY           SKY/WX    TMP DP  RH WIND       PRES   REMARKS
HARRISBURG PA  LGT SNOW  24  20  84 NE5       29.79F FOG
BALTIMORE      FLURRIES  29  24  82 NE10      29.73S WCI  20
ANNAPOLIS      CLOUDY    31  26  82 N12       29.72S WCI  22
ANDREWS AFB    NOT AVBL
PHILADELPHIA   FLURRIES  28  22  78 NE25      29.76S WCI  13
HENDERSON NC   DRIZZLE   40  37  86 N9        29.68R
GREENSBORO     CLOUDY    41  29  62 NW16      29.68R
ROCKY MOUNT    CLOUDY    46  40  79 NW14      29.65R
$$

VAZ100-270200-
MARINE

STATION/POSITION TIME  TEMP    WIND        PRES    WAVE   SWELL
                       AIR SEA DIR/SP/G            HT/PER HT/PER
                 (UTC) (F)     (DEG/KT/KT) (MB)    (FT/S) (FT/S)
BRANDYWINE LGT   0100   33 37   30/ 29/ 32 1003.6R
CAPE MAY NJ      0100   35 39   40/ 13/ 22 1002.7R
LEWES DE         0100   35 39   10/ 21/ 25 1003.4R
15NM E FENWICK I 0100   40 42               999.2F  14/ 9
OCEAN-CITY-INLET 0100   38 40   30/ 19/ 29 1001.1S
WACHAPREAGUE VA  0100   39 43  330/  8/ 14 1001.4F
THOMAS POINT MD  0100   31 37   10/ 22/ 24 1007.0R
COVE POINT MD    0100   31      10/ 18/ 23 1005.0S
SOLOMONS ISLAND  0100      39                N/A
BISHOPS HEAD MD  0100   33 39  360/ 13/ 20 1003.1F
PINEY POINT MD   0100           10/ 12/ 15   N/A
CAMBRIDGE MD     0100   32 37   10/ 13/ 20 1004.7S
LEWISETTA VA     0100   35 39  360/ 11/ 16 1004.5S
RAPPAHANNOCK LGT 0100          340/ 28/ 31 1002.7R
YORK RVR RNG VA  0100   38     350/ 21/ 25 1002.0S
YORKTOWN VA      0100   38 41  330/ 16/ 18 1003.0F
DOMINION TERM VA 0100   40     360/  4/ 12 1002.8S
KIPTOPEKE VA     0100      46  360/ 21/ 29   N/A
CHES BAY BRIDGE  0100   40 42  330/ 26/ 30 1001.6S
CAPE HENRY VA    0100   40     330/ 25/ 30 1000.5R
CHESAPEAKE LGHT  0000   41     330/ 28/ 31 1000.9R
WILLOUBY STN VA  0100   39     340/ 18/ 21 1003.1R
S CRANEY ISL VA  0100          350/ 11/ 17 1002.6S
CAPE HENRY BUOY  0000      45                N/A     6/ 4
CAPE CHARLES BUO 0100      43                N/A     5/ 6   2/ 9
OFFSHORE WE BUOY 0100      47                N/A     6/ 6   2/12
64NM E OF VA BCH 0100   47 52  330/ 23/ 27  997.3S   6/ 6   2/10
DUCK PIER NC     0100   42 44  340/ 23/ 27  999.5S
44100 DUCK FRF   0100      45                N/A     6/ 5
44056 DUCK FRF   0100      44                N/A     4/ 5
OREGON INLET NC  0100   45 46  320/ 12/ 20 1000.3R
HATTERAS NC      0100   49 54  320/ 18/ 21 1000.7R
DIAMOND SHLS NC  0100   54 71  310/ 21/ 25  999.5R   4/ 4   2/ 8
CAPE LOOKOUT NC  0000   50     330/ 10/ 12 1001.1R
$$



USA.gov is the U.S. government's official web portal to all federal, state and local government web resources and services.